FW4441 Weather Reports


Display with metric or nautical units.
time (UTC)temp
F
wind
direction
speed
MPH
gust
MPH
rain 1hr
in
rain 24hr
in
rain mn
in
humidity
%
barometer
mb
20260904111530 50 90 0.0 0.0 0.00 0.00 0.00 95 1009.5
20260904110109 50 90 0.0 0.0 0.00 0.00 0.00 95 1009.5
20260904104531 50 90 0.0 0.0 0.00 0.00 0.00 95 1009.4
20260904101531 49 90 0.0 0.0 0.00 0.00 0.00 95 1009.2
20260904094532 49 90 0.0 1.0 0.00 0.00 0.00 95 1008.9
20260904091530 49 160 0.0 2.0 0.00 0.00 0.00 94 1008.9
20260904090107 49 157 0.0 0.0 0.00 0.00 0.00 94 1008.8
20260904084531 49 169 0.0 3.0 0.00 0.00 0.00 93 1008.8
20260904083030 50 202 0.0 1.0 0.00 0.00 0.00 93 1008.6
20260904081530 50 202 0.0 0.0 0.00 0.00 0.00 93 1008.6
20260904073031 50 202 1.0 2.0 0.00 0.00 0.00 92 1008.7
20260904071530 50 164 0.0 0.0 0.00 0.00 0.00 91 1008.7
20260904070033 51 136 0.0 2.0 0.00 0.00 0.00 91 1008.5
20260904061530 51 67 0.0 2.0 0.00 0.00 0.00 90 1008.5
20260904060108 51 67 1.0 2.0 0.00 0.00 0.00 89 1008.5
20260904054531 51 296 0.0 3.0 0.00 0.00 0.00 88 1008.5
20260904053105 52 273 0.0 3.0 0.00 0.00 0.00 88 1008.5
20260904051531 52 337 0.0 2.0 0.00 0.00 0.00 88 1008.5
20260904050107 52 337 0.0 0.0 0.00 0.00 0.00 88 1008.6
20260904044529 53 337 0.0 0.0 0.00 0.00 0.00 87 1008.6
20260904043105 53 337 0.0 1.0 0.00 0.01 0.00 86 1008.6
20260904041531 53 332 0.0 2.0 0.00 0.01 0.00 85 1008.6
20260904040029 53 315 0.0 3.0 0.00 0.01 0.00 85 1008.6
20260904033028 54 327 4.0 7.0 0.00 0.01 0.00 83 1008.4
20260904031530 54 329 3.0 6.0 0.00 0.01 0.00 82 1008.3
20260904030031 55 310 5.0 10.0 0.00 0.01 0.00 81 1008.2
20260904024530 56 309 4.0 9.0 0.00 0.01 0.00 80 1008.2
20260904023031 56 290 3.0 8.0 0.00 0.06 0.00 79 1008.0
20260904020029 57 315 3.0 9.0 0.00 0.19 0.00 78 1008.0
20260904014530 57 278 4.0 8.0 0.00 0.23 0.00 77 1008.0
20260904013032 58 270 2.0 6.0 0.00 0.23 0.00 75 1007.9
20260904011528 60 273 3.0 6.0 0.00 0.23 0.00 72 1007.8
20260904010033 62 285 3.0 7.0 0.00 0.24 0.00 70 1007.7
20260904004530 64 302 3.0 7.0 0.00 0.25 0.00 70 1007.6
20260904003033 64 335 3.0 11.0 0.00 0.26 0.00 71 1007.6
20260904001528 63 352 4.0 10.0 0.00 0.27 0.00 76 1007.9
20260904000031 58 359 5.0 8.0 0.00 0.28 0.00 78 1007.9
20260903234542 58 318 4.0 11.0 0.00 0.28 0.00 76 1008.1
20260903233107 59 329 5.0 12.0 0.00 0.28 0.00 74 1008.0
20260903231531 60 308 6.0 12.0 0.00 0.28 0.00 73 1008.0
20260903230033 60 286 5.0 13.0 0.00 0.28 0.00 71 1008.2
20260903224529 62 285 6.0 15.0 0.00 0.28 0.00 68 1008.1
20260903223029 64 305 6.0 13.0 0.00 0.28 0.00 68 1008.0
20260903220146 64 261 9.0 19.0 0.00 0.30 0.00 63 1007.6
20260903214531 66 274 5.0 19.0 0.00 0.31 0.00 60 1007.4
20260903211532 71 293 2.0 9.0 0.00 0.33 0.00 57 1007.5
20260903204531 69 318 3.0 7.0 0.00 0.35 0.00 64 1007.6
20260903203031 69 265 4.0 9.0 0.00 0.36 0.00 65 1007.7
20260903201530 68 294 3.0 9.0 0.00 0.37 0.00 71 1007.9
20260903200029 67 306 3.0 8.0 0.00 0.37 0.00 74 1008.1
20260903193032 65 285 2.0 6.0 0.00 0.38 0.00 83 1008.6
20260903191530 65 23 2.0 5.0 0.00 0.39 0.00 85 1008.7
20260903184531 64 312 2.0 6.0 0.00 0.39 0.00 89 1009.1
20260903183029 61 325 1.0 6.0 0.00 0.39 0.00 93 1009.1
20260903181606 58 332 1.0 4.0 0.00 0.39 0.00 93 1009.3
20260903173105 54 243 2.0 5.0 0.00 0.39 0.00 99 1009.4
20260903171531 53 109 1.0 4.0 0.00 0.39 0.00 99 1009.2
20260903170030 51 56 1.0 3.0 0.00 0.39 0.00 98 1009.5
20260903164530 51 200 1.0 4.0 0.00 0.39 0.00 98 1009.5
20260903163031 51 216 1.0 4.0 0.00 0.39 0.00 99 1009.3
20260903161531 50 26 2.0 4.0 0.00 0.39 0.00 99 1009.4
20260903160039 50 114 0.0 3.0 0.00 0.39 0.00 99 1009.5
20260903154531 50 218 4.0 9.0 0.00 0.39 0.00 99 1009.3
20260903153031 49 86 1.0 6.0 0.00 0.39 0.00 99 1009.3
20260903151529 49 8 0.0 4.0 0.00 0.39 0.00 99 1009.5
20260903144606 48 133 0.0 2.0 0.00 0.39 0.00 99 1009.1
20260903143031 47 244 0.0 4.0 0.00 0.39 0.00 98 1009.1
20260903141532 47 247 0.0 1.0 0.00 0.39 0.00 98 1009.0
20260903140032 47 246 0.0 3.0 0.00 0.39 0.00 98 1008.9
20260903134540 47 115 1.0 5.0 0.00 0.39 0.00 98 1008.8
20260903131530 46 105 1.0 4.0 0.00 0.39 0.00 98 1008.6
20260903124541 46 67 0.0 1.0 0.00 0.39 0.00 98 1008.5
20260903123032 46 175 1.0 4.0 0.00 0.39 0.00 98 1008.6
20260903121528 47 110 0.0 2.0 0.00 0.39 0.00 98 1008.6
20260903120030 47 101 1.0 4.0 0.00 0.39 0.00 98 1008.6
20260903114531 48 188 0.0 5.0 0.00 0.39 0.00 98 1008.6
20260903113031 48 101 1.0 3.0 0.00 0.39 0.00 98 1008.5